Location: B�hl
(48.6968°N, 8.1352°E)
Time: 02:40:58
(UTC+00:00)

MOS 1 - Pass Details

Date: 08 March 2021
Orbit: 878 x 892 km, 99.1° (Epoch: 12 April)

Event Time Altitude Azimuth Distance (km) Brightness Sun altitude
Exits shadow 19:16:01 18° 157° (SSE) 2,030 5.8 -19.4°
Maximum altitude 19:20:21 80° 72° (ENE) 905 4.2 -20.1°
Drops below altitude 10° 19:26:02 10° 347° (NNW) 2,555 7.1 -21.0°
Sets 19:28:26 0° 346° (NNW) 3,497 7.9 -21.4°
